Kingsville NAS, TX

4:09 AM CDT on April 23, 2017 (GMT -0500)
Kingsville Naval Air Station

Weather History for KNQI - December, 2013

Change the Weather History Date:

Saturday, December 14, 2013

  Actual Average Record
Temperature  
Mean Temperature 60 °F -  
Max Temperature 73 °F 67 °F 84 °F (2008)
Min Temperature 45 °F 46 °F 32 °F (1997)
Degree Days  
Heating Degree Days 6    
Growing Degree Days 10 (Base 50)    
Moisture  
Dew Point 48 °F    
Average Humidity 71    
Maximum Humidity 97    
Minimum Humidity 30    
Precipitation  
Precipitation 0.00 in - - ()
Sea Level Pressure  
Sea Level Pressure 30.03 in    
Wind  
Wind Speed 8 mph (NNW)    
Max Wind Speed 23 mph    
Max Gust Speed 31 mph    
Visibility 10 miles    
Events Rain    
Averages and records for this station are not official NWS values.
T = Trace of Precipitation, MM = Missing Value Source: NWS Daily Summary

Daily Weather History Graph

Daily Weather History Graph

Search for Another Location

Airport or City:

Trip Planner

Search our weather history database for the weather conditions in past years. The results will help you decide how hot, cold, wet, or windy it might be!

Date:

Astronomy

Dec. 14, 2013 Rise Set
Actual Time 7:13 AM CST 5:38 PM CST
Civil Twilight 6:47 AM CST 6:04 PM CST
Nautical Twilight 6:18 AM CST 6:33 PM CST
Astronomical Twilight 5:50 AM CST 7:02 PM CST
Moon 3:53 PM CST (12/14) 4:44 AM CST (12/14)
Length of Visible Light 11h 16m
Length of Day
10h 25m
Waxing Gibbous, 94% of the Moon is Illuminated
Dec 14
Waxing Gibbous
Dec 17
Full
Dec 25
Last Quarter
Jan 1
New
Jan 7
First Quarter

Hourly Weather History & Observations

Time (CST) Temp. Windchill Dew Point Humidity Pressure Visibility Wind Dir Wind Speed Gust Speed Precip Events Conditions
12:56 AM 57.9 °F - 50.0 °F 75% 29.91 in 10.0 mi Calm Calm - N/A   Overcast
1:56 AM 59.0 °F - 51.1 °F 75% 29.90 in 10.0 mi Calm Calm - N/A   Overcast
2:23 AM 57.0 °F - 51.1 °F 81% 29.90 in 10.0 mi Calm Calm - N/A   Scattered Clouds
2:56 AM 55.9 °F - 51.1 °F 84% 29.89 in 10.0 mi NNW 6.9 mph - N/A   Clear
3:56 AM 55.9 °F - 50.0 °F 80% 29.89 in 10.0 mi NNW 6.9 mph - N/A   Partly Cloudy
4:13 AM 55.9 °F - 50.0 °F 80% 29.90 in 10.0 mi NNW 8.1 mph - N/A   Mostly Cloudy
4:56 AM 55.9 °F - 50.0 °F 80% 29.89 in 10.0 mi NNW 10.4 mph - N/A   Overcast
5:56 AM 55.9 °F - 50.0 °F 80% 29.92 in 10.0 mi NNW 11.5 mph - N/A   Overcast
6:16 AM 55.9 °F - 51.1 °F 84% 29.94 in 10.0 mi NNW 12.7 mph - N/A   Overcast
6:36 AM 55.9 °F - 51.1 °F 84% 29.95 in 10.0 mi NNW 11.5 mph - N/A   Overcast
6:56 AM 55.9 °F - 52.0 °F 87% 29.95 in 10.0 mi NNW 12.7 mph - 0.00 in Rain Light Rain
7:20 AM 55.9 °F - 52.0 °F 87% 29.97 in 10.0 mi NNW 9.2 mph - 0.00 in   Overcast
7:56 AM 55.9 °F - 55.0 °F 97% 29.98 in 6.0 mi NNW 8.1 mph - 0.00 in   Overcast
7:58 AM 55.9 °F - 55.0 °F 97% 29.99 in 7.0 mi NNW 8.1 mph - N/A   Overcast
8:06 AM 57.0 °F - 55.0 °F 93% 29.99 in 9.0 mi NNW 10.4 mph - N/A   Overcast
8:17 AM 57.9 °F - 55.0 °F 90% 30.00 in 10.0 mi NNW 10.4 mph - N/A   Overcast
8:29 AM 57.9 °F - 55.0 °F 90% 30.00 in 10.0 mi NNW 10.4 mph - N/A   Overcast
8:56 AM 59.0 °F - 54.0 °F 83% 30.00 in 10.0 mi NNW 10.4 mph - N/A   Scattered Clouds
9:56 AM 63.0 °F - 53.1 °F 70% 30.04 in 10.0 mi North 10.4 mph - N/A   Partly Cloudy
10:56 AM 64.9 °F - 50.0 °F 58% 30.03 in 10.0 mi NNW 15.0 mph - N/A   Partly Cloudy
11:56 AM 73.0 °F - 45.0 °F 37% 30.02 in 10.0 mi NW 20.7 mph 25.3 mph N/A   Partly Cloudy
12:56 PM 73.0 °F - 43.0 °F 34% 30.01 in 10.0 mi NNW 23.0 mph 31.1 mph N/A   Clear
1:56 PM 73.9 °F - 41.0 °F 30% 30.02 in 10.0 mi NNW 21.9 mph 29.9 mph N/A   Clear
2:56 PM 73.0 °F - 39.9 °F 30% 30.04 in 10.0 mi NNW 20.7 mph 28.8 mph N/A   Clear
3:56 PM 70.0 °F - 41.0 °F 35% 30.07 in 10.0 mi NNW 19.6 mph - N/A   Clear
4:56 PM 64.9 °F - 42.1 °F 43% 30.09 in 10.0 mi North 18.4 mph 25.3 mph N/A   Clear
5:56 PM 60.1 °F - 43.0 °F 53% 30.14 in 10.0 mi NNE 15.0 mph 23.0 mph N/A   Clear
6:56 PM 55.0 °F - 44.1 °F 67% 30.18 in 10.0 mi NNE 9.2 mph - N/A   Clear
7:56 PM 53.1 °F - 43.0 °F 69% 30.22 in 10.0 mi NNE 11.5 mph - N/A   Clear
8:56 PM 51.1 °F - 42.1 °F 71% 30.27 in 10.0 mi North 11.5 mph - N/A   Clear
9:56 PM 48.9 °F - 41.0 °F 74% 30.29 in 10.0 mi North 9.2 mph - N/A   Clear
10:56 PM 46.0 °F 42.5 °F 39.9 °F 79% 30.32 in 10.0 mi North 6.9 mph - N/A   Clear
11:56 PM 45.0 °F 39.7 °F 39.9 °F 82% 30.32 in 10.0 mi North 10.4 mph - N/A   Clear